Hourly Weather Bururi

Today, 22 September, Tuesday

Time Temperature Precipitation Wind Pressure Humidity
00:00 +21°C° 0 mm 1 mps 617 mmHg 53%
01:00 +20°C° 0 mm 1 mps 617 mmHg 55%
02:00 +19°C° 0 mm 1 mps 616 mmHg 54%
03:00 +19°C° 0 mm 1 mps 616 mmHg 55%
04:00 +19°C° 0 mm 1 mps 616 mmHg 57%
05:00 +19°C° 0 mm 1 mps 616 mmHg 58%
06:00 +21°C° 0 mm 1 mps 617 mmHg 55%
07:00 +22°C° 0 mm 1 mps 618 mmHg 53%
08:00 +23°C° 0 mm 1 mps 619 mmHg 52%
09:00 +24°C° 0.1 mm 2 mps 619 mmHg 50%
10:00 +25°C° 0.1 mm 2 mps 619 mmHg 48%
11:00 +27°C° 0.1 mm 3 mps 619 mmHg 45%
12:00 +27°C° 0.5 mm 3 mps 619 mmHg 46%
13:00 +27°C° 0.5 mm 3 mps 618 mmHg 46%
14:00 +26°C° 0 mm 3 mps 618 mmHg 48%
15:00 +25°C° 1.1 mm 2 mps 617 mmHg 54%
16:00 +24°C° 1.1 mm 2 mps 617 mmHg 60%
17:00 +22°C° 1.1 mm 1 mps 616 mmHg 66%
18:00 +21°C° 0.7 mm 1 mps 616 mmHg 69%
19:00 +20°C° 0.7 mm 1 mps 617 mmHg 73%
20:00 +19°C° 0.7 mm 1 mps 617 mmHg 76%
21:00 +19°C° 0 mm 1 mps 617 mmHg 75%
22:00 +19°C° 0 mm 1 mps 617 mmHg 74%
23:00 +19°C° 0 mm 1 mps 617 mmHg 73%

Tomorrow, 23 September, Wednesday

Time Temperature Precipitation Wind Pressure Humidity
00:00 +19°C° 0 mm 1 mps 617 mmHg 71%
01:00 +19°C° 0 mm 1 mps 617 mmHg 70%
02:00 +19°C° 0 mm 1 mps 616 mmHg 69%
03:00 +19°C° 0 mm 1 mps 616 mmHg 70%
04:00 +18°C° 0 mm 1 mps 616 mmHg 72%
05:00 +18°C° 0 mm 1 mps 616 mmHg 74%
06:00 +19°C° 0 mm 1 mps 617 mmHg 71%
07:00 +19°C° 0 mm 2 mps 618 mmHg 68%
08:00 +20°C° 0 mm 2 mps 619 mmHg 65%
09:00 +23°C° 0.1 mm 2 mps 619 mmHg 59%
10:00 +24°C° 0.1 mm 2 mps 619 mmHg 54%
11:00 +25°C° 0.1 mm 3 mps 619 mmHg 48%
12:00 +26°C° 0 mm 3 mps 618 mmHg 45%
13:00 +27°C° 0 mm 3 mps 617 mmHg 41%
14:00 +27°C° 0 mm 3 mps 617 mmHg 38%
15:00 +27°C° 0 mm 2 mps 616 mmHg 39%
16:00 +26°C° 0 mm 2 mps 616 mmHg 41%
17:00 +26°C° 0 mm 2 mps 615 mmHg 42%
18:00 +24°C° 0 mm 1 mps 615 mmHg 47%
19:00 +23°C° 0 mm 1 mps 615 mmHg 53%
20:00 +21°C° 0 mm 1 mps 615 mmHg 58%
21:00 +21°C° 0 mm 1 mps 616 mmHg 56%
22:00 +21°C° 0 mm 1 mps 616 mmHg 53%
23:00 +22°C° 0 mm 1 mps 617 mmHg 51%

Day after tomorrow, 24 September, Thursday

Time Temperature Precipitation Wind Pressure Humidity
00:00 +22°C° 0 mm 1 mps 616 mmHg 51%
01:00 +21°C° 0 mm 1 mps 616 mmHg 50%
02:00 +21°C° 0 mm 1 mps 616 mmHg 50%
03:00 +21°C° 0 mm 1 mps 616 mmHg 53%
04:00 +20°C° 0 mm 1 mps 616 mmHg 56%
05:00 +18°C° 0 mm 2 mps 616 mmHg 59%
06:00 +19°C° 0 mm 2 mps 617 mmHg 55%
07:00 +21°C° 0 mm 2 mps 618 mmHg 51%
08:00 +23°C° 0 mm 2 mps 619 mmHg 47%
09:00 +24°C° 0 mm 2 mps 619 mmHg 45%
10:00 +25°C° 0 mm 3 mps 619 mmHg 43%
11:00 +27°C° 0 mm 3 mps 619 mmHg 40%
12:00 +26°C° 0 mm 3 mps 618 mmHg 41%
13:00 +26°C° 0 mm 2 mps 617 mmHg 41%
14:00 +26°C° 0 mm 2 mps 616 mmHg 42%
15:00 +26°C° 0 mm 2 mps 615 mmHg 42%
16:00 +26°C° 0 mm 2 mps 615 mmHg 42%
17:00 +26°C° 0 mm 1 mps 615 mmHg 42%
18:00 +24°C° 0 mm 1 mps 615 mmHg 47%
19:00 +23°C° 0 mm 1 mps 615 mmHg 52%
20:00 +21°C° 0 mm 1 mps 616 mmHg 57%
21:00 +21°C° 0 mm 1 mps 616 mmHg 57%
22:00 +21°C° 0 mm 1 mps 616 mmHg 57%
23:00 +20°C° 0 mm 1 mps 616 mmHg 57%

25 September, Friday

Time Temperature Precipitation Wind Pressure Humidity
00:00 +20°C° 0 mm 1 mps 616 mmHg 57%
01:00 +20°C° 0 mm 1 mps 615 mmHg 58%
02:00 +20°C° 0 mm 1 mps 615 mmHg 59%
03:00 +20°C° 0 mm 1 mps 615 mmHg 59%
04:00 +20°C° 0 mm 1 mps 615 mmHg 59%
05:00 +19°C° 0 mm 1 mps 615 mmHg 60%
06:00 +20°C° 0 mm 1 mps 616 mmHg 58%
07:00 +21°C° 0 mm 1 mps 617 mmHg 57%
08:00 +20°C° 0 mm 2 mps 618 mmHg 56%
09:00 +21°C° 0 mm 2 mps 618 mmHg 53%
10:00 +24°C° 0 mm 2 mps 618 mmHg 50%
11:00 +25°C° 0 mm 2 mps 618 mmHg 48%
12:00 +25°C° 0 mm 2 mps 617 mmHg 48%
13:00 +25°C° 0 mm 2 mps 616 mmHg 47%
14:00 +26°C° 0 mm 3 mps 616 mmHg 47%
15:00 +25°C° 0 mm 2 mps 615 mmHg 48%
16:00 +25°C° 0 mm 2 mps 615 mmHg 49%
17:00 +24°C° 0 mm 2 mps 615 mmHg 50%
18:00 +23°C° 0 mm 2 mps 615 mmHg 55%
19:00 +21°C° 0 mm 1 mps 615 mmHg 60%
20:00 +20°C° 0 mm 1 mps 616 mmHg 65%
21:00 +20°C° 0 mm 1 mps 616 mmHg 64%
22:00 +20°C° 0 mm 1 mps 616 mmHg 63%
23:00 +19°C° 0 mm 1 mps 616 mmHg 62%

26 September, Saturday

Time Temperature Precipitation Wind Pressure Humidity
00:00 +19°C° 0 mm 1 mps 615 mmHg 63%
01:00 +19°C° 0 mm 1 mps 615 mmHg 65%
02:00 +19°C° 0 mm 1 mps 615 mmHg 66%
03:00 +18°C° 0 mm 1 mps 615 mmHg 68%
04:00 +18°C° 0 mm 1 mps 615 mmHg 70%
05:00 +18°C° 0 mm 1 mps 615 mmHg 72%
06:00 +20°C° 0 mm 1 mps 616 mmHg 66%
07:00 +22°C° 0 mm 1 mps 617 mmHg 59%
08:00 +24°C° 0 mm 1 mps 618 mmHg 52%
09:00 +25°C° 0 mm 1 mps 618 mmHg 49%
10:00 +26°C° 0 mm 2 mps 618 mmHg 46%
11:00 +27°C° 0 mm 3 mps 617 mmHg 43%
12:00 +26°C° 0.4 mm 3 mps 617 mmHg 47%
13:00 +26°C° 0.4 mm 3 mps 616 mmHg 50%
14:00 +25°C° 0.4 mm 3 mps 615 mmHg 54%
15:00 +25°C° 0.4 mm 3 mps 615 mmHg 56%
16:00 +24°C° 0.4 mm 2 mps 615 mmHg 57%
17:00 +24°C° 0.4 mm 2 mps 614 mmHg 59%
18:00 +23°C° 0.3 mm 1 mps 615 mmHg 62%
19:00 +22°C° 0.3 mm 1 mps 615 mmHg 66%
20:00 +21°C° 0.3 mm 1 mps 615 mmHg 70%
21:00 +20°C° 0 mm 1 mps 615 mmHg 71%
22:00 +19°C° 0 mm 1 mps 615 mmHg 73%
23:00 +19°C° 0 mm 1 mps 615 mmHg 74%

27 September, Sunday

Time Temperature Precipitation Wind Pressure Humidity
00:00 +19°C° 0.1 mm 1 mps 615 mmHg 74%
01:00 +18°C° 0.1 mm 1 mps 615 mmHg 75%
02:00 +18°C° 0.1 mm 1 mps 614 mmHg 75%
03:00 +18°C° 0 mm 1 mps 614 mmHg 76%
04:00 +18°C° 0 mm 1 mps 614 mmHg 76%
05:00 +18°C° 0 mm 1 mps 615 mmHg 76%
06:00 +19°C° 0 mm 1 mps 616 mmHg 70%
07:00 +21°C° 0 mm 1 mps 617 mmHg 63%
08:00 +23°C° 0 mm 1 mps 618 mmHg 57%
09:00 +25°C° 0.5 mm 1 mps 618 mmHg 53%
10:00 +26°C° 0.5 mm 1 mps 618 mmHg 50%
11:00 +27°C° 0.5 mm 2 mps 618 mmHg 46%
12:00 +26°C° 0.6 mm 1 mps 617 mmHg 49%
13:00 +25°C° 0.6 mm 1 mps 615 mmHg 52%
14:00 +24°C° 0.6 mm 1 mps 614 mmHg 55%
15:00 +24°C° 0.3 mm 1 mps 614 mmHg 56%
16:00 +24°C° 0.3 mm 1 mps 614 mmHg 57%
17:00 +24°C° 0.3 mm 2 mps 614 mmHg 58%
18:00 +23°C° 0.4 mm 1 mps 614 mmHg 63%
19:00 +22°C° 0.4 mm 1 mps 615 mmHg 67%
20:00 +20°C° 0.4 mm 1 mps 615 mmHg 72%
21:00 +20°C° 1.1 mm 1 mps 615 mmHg 75%
22:00 +20°C° 1.1 mm 1 mps 615 mmHg 77%
23:00 +19°C° 1.1 mm 1 mps 615 mmHg 80%
Show more